リニア彗星

247P/LINEAR (2011)

English version
Home page
Updated on February 8, 2021

---------------------------------------------------------------------

・ プロフィール

符号 247P/2010 V3
検出日 2010年11月15日
検出光度 18.3等
検出者 Lincoln Laboratory Near-Earth Asteroid Research project

・ 写真集

・ 軌道要素

Epoch 2010 Dec. 30.0 TT = JDT 2455560.5
T 2011 Jan. 4.14111 TT                                  MPC
q   1.4843894            (2000.0)            P               Q
n   0.12491562     Peri.   47.32761     -0.18166585     -0.96450152
a   3.9633115      Node    54.12582     +0.81881838     -0.25629883
e   0.6254674      Incl.   13.68186     +0.54454933     +0.06362179
P   7.89
From 496 observations 2002 Nov. 5-2011 Jan. 14, mean residual 0".4.

・ 星図

・ 光度変化

        m1 = 14.0 + 5 logΔ + 22.0 log r(t - 30)

---------------------------------------------------------------------

軌道要素はM.P.E.C. 2011-A67に掲載されたものです。
星図はステラナビゲータ Ver.8 (アストロアーツ) で作成したものです。
光度グラフはComet for Windowsで作成したものです。

---------------------------------------------------------------------

Copyright(C) Seiichi Yoshida (comet@aerith.net). All rights reserved.